Hourly Data Report for September 18, 2015

All times are specified in Local Standard Time (LST). Add 1 hour to adjust for Daylight Saving Time where and when it is observed.

TORONTO INTL A
ONTARIO

43°40'36.000" N
79°37'50.000" W
173.40 m
6158731
71624
YYZ

Download Data

Hourly Data (September 2015)
Hourly Data Report for September 18, 2015
Temp Definition
°C
Dew Point Temp Definition
°C
Rel Hum Definition
%
Wind Dir Definition
10's deg

Wind Spd Definition
km/h
Visibility Definition
km
Stn Press Definition
kPa
Hmdx Definition


Wind Chill Definition


Weather Definition


TIME
00:00 Legend Double Dagger 19.4 14.3 72 21 5 24.1 99.49     LegendNANA
01:00 Legend Double Dagger 18.9 14.4 75 17 7 24.1 99.45     Clear
02:00 Legend Double Dagger 17.9 13.7 76 26 5 24.1 99.42     LegendNANA
03:00 Legend Double Dagger 16.5 12.3 76 36 3 24.1 99.40     LegendNANA
04:00 Legend Double Dagger 17.3 12.7 74 36 3 24.1 99.37     Clear
05:00 Legend Double Dagger 17.2 12.8 75 36 2 24.1 99.36     LegendNANA
06:00 Legend Double Dagger 17.3 13.1 76 13 5 24.1 99.36     LegendNANA
07:00 Legend Double Dagger 18.7 13.6 72 16 5 24.1 99.37     Mostly Cloudy
08:00 Legend Double Dagger 20.4 15.3 72 19 6 24.1 99.36 25   LegendNANA
09:00 Legend Double Dagger 22.9 16.8 68 17 10 24.1 99.32 28   LegendNANA
10:00 Legend Double Dagger 24.8 16.4 59 18 14 24.1 99.28 30   Mostly Cloudy
11:00 Legend Double Dagger 25.7 18.0 62 13 15 24.1 99.24 32   LegendNANA
12:00 Legend Double Dagger 25.8 15.7 53 18 17 24.1 99.20 30   LegendNANA
13:00 Legend Double Dagger 26.8 14.4 46 20 18 24.1 99.15 30   Mostly Cloudy
14:00 Legend Double Dagger 26.2 14.5 48 22 19 24.1 99.13 30   LegendNANA
15:00 Legend Double Dagger 25.3 14.0 49 22 25 24.1 99.13 29   LegendNANA
16:00 Legend Double Dagger 24.4 13.5 50 22 17 24.1 99.13 27   Cloudy
17:00 Legend Double Dagger 22.4 14.1 59 25 25 24.1 99.19 26   LegendNANA
18:00 Legend Double Dagger 23.0 13.9 56 24 13 24.1 99.15 26   LegendNANA
19:00 Legend Double Dagger 22.2 15.2 64 23 4 24.1 99.10 26   Cloudy
20:00 Legend Double Dagger 22.0 15.5 66 20 3 24.1 99.09 26   LegendNANA
21:00 Legend Double Dagger 22.0 15.5 66 21 8 24.1 99.10 26   LegendNANA
22:00 Legend Double Dagger 21.5 15.7 69 24 9 24.1 99.12 26   Mostly Cloudy
23:00 Legend Double Dagger 19.5 15.2 76 33 6 24.1 99.08     LegendNANA

Notes on Data Quality.

Legend

  • E = Estimated
  • M = Missing
  • NA = Not Available
  • ‡ = Partner data that is not subject to review by the National Climate Archives
Date modified: